| time (UTC) | temp F | wind direction | speed MPH | gust MPH | rain 1hr in | rain 24hr in | rain mn in | humidity % | barometer mb |
| 20260502194313 | 56 | 330 | 4.0 | 10.0 | 0.08 | 2.36 | 0.60 | 92 | 1013.0 |
| 20260502193334 | 56 | 24 | 6.0 | 12.0 | 0.08 | 2.36 | 0.60 | 91 | 1013.1 |
| 20260502192334 | 56 | 297 | 4.0 | 8.0 | 0.12 | 2.36 | 0.60 | 93 | 1013.1 |
| 20260502191308 | 56 | 345 | 5.0 | 11.0 | 0.08 | 2.32 | 0.59 | 92 | 1013.1 |
| 20260502190322 | 56 | 20 | 3.0 | 11.0 | 0.08 | 2.32 | 0.59 | 93 | 1013.4 |
| 20260502185322 | 56 | 331 | 4.0 | 12.0 | 0.08 | 2.32 | 0.59 | 93 | 1013.4 |
| 20260502184341 | 56 | 45 | 4.0 | 9.0 | 0.08 | 2.28 | 0.58 | 92 | 1013.3 |
| 20260502183326 | 56 | 344 | 4.0 | 10.0 | 0.08 | 2.28 | 0.58 | 93 | 1013.4 |
| 20260502182323 | 56 | 40 | 2.0 | 8.0 | 0.08 | 2.24 | 0.57 | 94 | 1013.4 |
| 20260502181326 | 56 | 312 | 4.0 | 11.0 | 0.08 | 2.24 | 0.57 | 93 | 1013.1 |
| 20260502180340 | 56 | 344 | 4.0 | 11.0 | 0.08 | 2.24 | 0.57 | 93 | 1013.3 |
| 20260502170310 | 56 | 42 | 4.0 | 12.0 | 0.16 | 2.17 | 0.55 | 93 | 1013.4 |
| 20260502164326 | 56 | 330 | 4.0 | 12.0 | 0.28 | 2.17 | 0.55 | 94 | 1013.7 |
| 20260502163340 | 56 | 26 | 3.0 | 11.0 | 0.31 | 2.13 | 0.54 | 94 | 1013.6 |
| 20260502162321 | 56 | 355 | 3.0 | 9.0 | 0.31 | 2.09 | 0.53 | 94 | 1013.9 |
| 20260502161316 | 56 | 13 | 3.0 | 8.0 | 0.31 | 2.05 | 0.52 | 94 | 1014.2 |
| 20260502160336 | 56 | 333 | 4.0 | 9.0 | 0.31 | 2.01 | 0.51 | 93 | 1014.2 |
| 20260502152342 | 56 | 38 | 5.0 | 12.0 | 0.43 | 2.09 | 0.45 | 93 | 1014.2 |
| 20260502151319 | 55 | 5 | 4.0 | 9.0 | 0.51 | 2.05 | 0.44 | 94 | 1014.0 |
| 20260502150316 | 55 | 350 | 4.0 | 12.0 | 0.51 | 2.01 | 0.43 | 94 | 1013.9 |
| 20260502130343 | 55 | 326 | 4.0 | 9.0 | 0.20 | 1.42 | 0.25 | 93 | 1013.3 |
| 20260502123316 | 55 | 355 | 2.0 | 6.0 | 0.16 | 1.34 | 0.23 | 93 | 1013.3 |
| 20260502122316 | 56 | 297 | 3.0 | 6.0 | 0.16 | 1.30 | 0.22 | 93 | 1013.3 |
| 20260502121311 | 56 | 323 | 2.0 | 8.0 | 0.16 | 1.26 | 0.21 | 93 | 1013.2 |
| 20260502120333 | 56 | 302 | 2.0 | 5.0 | 0.12 | 1.22 | 0.20 | 93 | 1013.2 |
| 20260502115312 | 56 | 331 | 3.0 | 5.0 | 0.16 | 1.26 | 0.20 | 93 | 1013.0 |
| 20260502114312 | 56 | 355 | 2.0 | 6.0 | 0.20 | 1.26 | 0.20 | 93 | 1013.2 |
| 20260502113326 | 56 | 320 | 2.0 | 5.0 | 0.20 | 1.22 | 0.19 | 93 | 1013.2 |
| 20260502112328 | 56 | 300 | 1.0 | 4.0 | 0.20 | 1.18 | 0.18 | 93 | 1013.2 |
| 20260502111344 | 56 | 348 | 2.0 | 5.0 | 0.24 | 1.14 | 0.17 | 93 | 1013.2 |
| 20260502110325 | 56 | 337 | 1.0 | 3.0 | 0.35 | 1.14 | 0.17 | 93 | 1013.2 |
| 20260502105320 | 56 | 290 | 2.0 | 3.0 | 0.39 | 1.10 | 0.16 | 93 | 1013.2 |
| 20260502104323 | 56 | 299 | 3.0 | 5.0 | 0.43 | 1.06 | 0.15 | 93 | 1013.2 |
| 20260502103338 | 56 | 318 | 2.0 | 4.0 | 0.43 | 1.02 | 0.14 | 92 | 1013.2 |
| 20260502102318 | 56 | 284 | 1.0 | 4.0 | 0.43 | 0.94 | 0.12 | 92 | 1013.4 |
| 20260502101341 | 56 | 263 | 2.0 | 6.0 | 0.35 | 0.87 | 0.10 | 92 | 1013.3 |
| 20260502100311 | 56 | 289 | 2.0 | 6.0 | 0.31 | 0.79 | 0.08 | 91 | 1013.3 |
| 20260502091316 | 57 | 304 | 1.0 | 2.0 | 0.04 | 0.51 | 0.01 | 89 | 1013.3 |
| 20260502090336 | 57 | 303 | 1.0 | 2.0 | 0.00 | 0.47 | 0.00 | 88 | 1013.3 |
| 20260502071311 | 57 | 313 | 1.0 | 2.0 | 0.00 | 0.47 | 0.00 | 88 | 1012.5 |
| 20260502070334 | 57 | 288 | 1.0 | 4.0 | 0.00 | 0.47 | 0.00 | 88 | 1012.5 |
| 20260502065326 | 57 | 296 | 1.0 | 2.0 | 0.00 | 0.47 | 0.00 | 88 | 1012.5 |
| 20260502064320 | 57 | 317 | 1.0 | 3.0 | 0.00 | 0.47 | 0.00 | 88 | 1012.6 |
| 20260502063319 | 57 | 314 | 1.0 | 3.0 | 0.00 | 0.47 | 0.00 | 88 | 1012.7 |
| 20260502062314 | 57 | 321 | 1.0 | 3.0 | 0.00 | 0.47 | 0.00 | 88 | 1012.7 |
| 20260502061333 | 57 | 313 | 1.0 | 2.0 | 0.00 | 0.47 | 0.00 | 87 | 1013.0 |
| 20260502060327 | 57 | 336 | 1.0 | 3.0 | 0.00 | 0.47 | 0.00 | 87 | 1013.0 |
| 20260502055346 | 57 | 296 | 1.0 | 3.0 | 0.00 | 0.47 | 0.00 | 87 | 1013.2 |
| 20260502054319 | 57 | 288 | 1.0 | 4.0 | 0.00 | 0.47 | 0.00 | 87 | 1013.3 |
| 20260502053316 | 57 | 321 | 1.0 | 4.0 | 0.00 | 0.47 | 0.00 | 87 | 1013.5 |
| 20260502052318 | 57 | 316 | 2.0 | 4.0 | 0.00 | 0.47 | 0.00 | 87 | 1013.4 |
| 20260502051309 | 57 | 335 | 2.0 | 3.0 | 0.00 | 0.47 | 0.00 | 87 | 1013.3 |
| 20260502050330 | 57 | 344 | 1.0 | 2.0 | 0.00 | 0.47 | 0.00 | 87 | 1013.4 |
| 20260502045357 | 57 | 309 | 0.0 | 2.0 | 0.00 | 0.47 | 0.00 | 87 | 1013.6 |
| 20260502044316 | 57 | 327 | 1.0 | 2.0 | 0.00 | 0.47 | 0.00 | 87 | 1013.8 |
| 20260502043335 | 57 | 329 | 1.0 | 2.0 | 0.00 | 0.47 | 0.00 | 87 | 1013.9 |
| 20260502042310 | 57 | 333 | 1.0 | 2.0 | 0.00 | 0.47 | 0.00 | 87 | 1013.8 |
| 20260502041311 | 57 | 331 | 1.0 | 3.0 | 0.00 | 0.47 | 0.00 | 87 | 1013.8 |
| 20260502040349 | 57 | 340 | 0.0 | 3.0 | 0.00 | 0.47 | 0.00 | 87 | 1013.9 |
| 20260502035323 | 57 | 355 | 1.0 | 3.0 | 0.00 | 0.47 | 0.12 | 87 | 1013.8 |
| 20260502034323 | 57 | 342 | 1.0 | 3.0 | 0.00 | 0.47 | 0.12 | 87 | 1014.0 |
| 20260502033322 | 57 | 355 | 2.0 | 4.0 | 0.00 | 0.47 | 0.12 | 87 | 1014.0 |
| 20260502032319 | 56 | 34 | 2.0 | 3.0 | 0.00 | 0.47 | 0.12 | 87 | 1014.0 |
| 20260502031326 | 56 | 11 | 2.0 | 3.0 | 0.00 | 0.47 | 0.12 | 87 | 1014.1 |
| 20260502030321 | 56 | 342 | 1.0 | 4.0 | 0.00 | 0.47 | 0.12 | 87 | 1014.3 |
| 20260502025316 | 56 | 9 | 2.0 | 4.0 | 0.00 | 0.47 | 0.12 | 87 | 1014.3 |
| 20260502024319 | 56 | 313 | 2.0 | 3.0 | 0.00 | 0.47 | 0.12 | 87 | 1014.3 |
| 20260502023315 | 56 | 337 | 1.0 | 4.0 | 0.00 | 0.47 | 0.12 | 86 | 1014.4 |
| 20260502022313 | 56 | 336 | 2.0 | 4.0 | 0.00 | 0.47 | 0.12 | 86 | 1014.6 |
| 20260502021316 | 57 | 5 | 2.0 | 4.0 | 0.00 | 0.47 | 0.12 | 86 | 1014.4 |
| 20260502020312 | 57 | 342 | 2.0 | 3.0 | 0.00 | 0.47 | 0.12 | 86 | 1014.4 |
| 20260502015332 | 57 | 9 | 1.0 | 3.0 | 0.00 | 0.47 | 0.12 | 86 | 1014.4 |
| 20260502014308 | 57 | 341 | 1.0 | 4.0 | 0.00 | 0.47 | 0.12 | 86 | 1014.3 |
| 20260502013309 | 57 | 9 | 2.0 | 4.0 | 0.00 | 0.47 | 0.12 | 85 | 1014.1 |
| 20260502012332 | 57 | 317 | 1.0 | 3.0 | 0.00 | 0.47 | 0.12 | 85 | 1014.2 |
| 20260502011327 | 57 | 325 | 1.0 | 3.0 | 0.00 | 0.47 | 0.12 | 85 | 1014.2 |
| 20260502010330 | 58 | 355 | 1.0 | 2.0 | 0.00 | 0.47 | 0.12 | 84 | 1013.9 |
| 20260502005328 | 58 | 67 | 2.0 | 3.0 | 0.00 | 0.47 | 0.12 | 84 | 1013.8 |
| 20260502004325 | 58 | 355 | 1.0 | 3.0 | 0.00 | 0.47 | 0.12 | 83 | 1013.9 |
| 20260502003326 | 58 | 19 | 0.0 | 3.0 | 0.00 | 0.47 | 0.12 | 83 | 1013.9 |
| 20260502002323 | 59 | 38 | 1.0 | 3.0 | 0.00 | 0.47 | 0.12 | 82 | 1013.7 |
| 20260502001326 | 59 | 9 | 2.0 | 4.0 | 0.00 | 0.47 | 0.12 | 81 | 1013.3 |
| 20260502000324 | 59 | 341 | 2.0 | 4.0 | 0.00 | 0.47 | 0.12 | 80 | 1013.5 |
| 20260501235318 | 60 | 64 | 2.0 | 3.0 | 0.00 | 0.47 | 0.12 | 80 | 1013.5 |
| 20260501234322 | 60 | 28 | 1.0 | 2.0 | 0.00 | 0.47 | 0.12 | 79 | 1013.7 |
| 20260501233319 | 61 | 12 | 1.0 | 2.0 | 0.00 | 0.47 | 0.12 | 77 | 1013.8 |
| 20260501232315 | 61 | 35 | 2.0 | 4.0 | 0.00 | 0.47 | 0.12 | 77 | 1013.7 |
| 20260501231318 | 61 | 19 | 1.0 | 5.0 | 0.00 | 0.47 | 0.12 | 76 | 1013.8 |
| 20260501230314 | 62 | 36 | 2.0 | 4.0 | 0.00 | 0.47 | 0.12 | 75 | 1013.9 |
| 20260501225319 | 62 | 16 | 3.0 | 4.0 | 0.00 | 0.47 | 0.12 | 73 | 1014.0 |
| 20260501224316 | 63 | 331 | 2.0 | 4.0 | 0.00 | 0.47 | 0.12 | 72 | 1014.1 |
| 20260501223310 | 63 | 9 | 2.0 | 5.0 | 0.00 | 0.47 | 0.12 | 72 | 1014.1 |
| 20260501222313 | 63 | 355 | 1.0 | 5.0 | 0.00 | 0.47 | 0.12 | 73 | 1014.1 |
| 20260501221311 | 64 | 327 | 2.0 | 4.0 | 0.00 | 0.47 | 0.12 | 71 | 1014.1 |
| 20260501220318 | 64 | 48 | 0.0 | 3.0 | 0.00 | 0.47 | 0.12 | 72 | 1014.2 |
| 20260501215312 | 64 | 330 | 2.0 | 4.0 | 0.00 | 0.47 | 0.12 | 70 | 1014.3 |
| 20260501214309 | 63 | 55 | 3.0 | 4.0 | 0.00 | 0.47 | 0.12 | 72 | 1014.4 |
| 20260501213308 | 63 | 66 | 1.0 | 4.0 | 0.00 | 0.47 | 0.12 | 72 | 1014.2 |
| 20260501212325 | 63 | 266 | 2.0 | 5.0 | 0.00 | 0.47 | 0.12 | 72 | 1014.4 |
| 20260501211326 | 62 | 42 | 2.0 | 5.0 | 0.00 | 0.47 | 0.12 | 73 | 1014.4 |
| 20260501210323 | 63 | 313 | 4.0 | 6.0 | 0.00 | 0.47 | 0.12 | 71 | 1014.5 |
| 20260501205346 | 63 | 355 | 2.0 | 4.0 | 0.00 | 0.47 | 0.12 | 71 | 1014.5 |
| 20260501204340 | 62 | 109 | 2.0 | 7.0 | 0.00 | 0.47 | 0.12 | 73 | 1014.5 |
| 20260501203322 | 62 | 116 | 1.0 | 6.0 | 0.00 | 0.47 | 0.12 | 74 | 1014.6 |
| 20260501202316 | 62 | 306 | 3.0 | 5.0 | 0.00 | 0.47 | 0.12 | 73 | 1014.7 |
| 20260501201315 | 62 | 294 | 2.0 | 5.0 | 0.00 | 0.47 | 0.12 | 72 | 1014.7 |
| 20260501200318 | 61 | 5 | 3.0 | 6.0 | 0.00 | 0.47 | 0.12 | 74 | 1014.8 |
| 20260501195315 | 60 | 350 | 2.0 | 6.0 | 0.00 | 0.47 | 0.12 | 77 | 1015.3 |